Regional Weather Roundup
Issued by NWS

Home | Current Version | Previous Version | Text Only | Print | Product List | Glossary Off
Versions: 1 2 3 4 5 6 7 8 9 10 11 12 13 14 15 16 17 18 19 20 21 22 23 24 25 26 27 28 29 30 31 32 33 34 35 36 37 38 39 40 41 42 43 44 45 46 47 48 49 50

000
ASUS43 KLOT 161658
RWRIL

ILLINOIS REGIONAL WEATHER ROUNDUP
NATIONAL WEATHER SERVICE CHICAGO/ROMEOVILLE IL
1200 PM CDT TUE SEP 16 2014

NOTE: "FAIR" INDICATES FEW OR NO CLOUDS BELOW 12,000 FEET WITH NO
SIGNIFICANT WEATHER AND/OR OBSTRUCTIONS TO VISIBILITY.

* THESE STATIONS ARE NOT UNDER NWS QUALITY CONTROL. THEY ALSO MAY NOT
  REPORT WEATHER SUCH AS PRECIPITATION OR FOG.

ILZ001-002-007-009-015-016-024-161800-
NORTHWEST ILLINOIS

CITY           SKY/WX    TMP DP  RH WIND       PRES   REMARKS
MOLINE         SUNNY     63  41  44 NW6       30.22F
$$

ILZ003-004-008-010-011-017-018-161800-
NORTH CENTRAL ILLINOIS

CITY           SKY/WX    TMP DP  RH WIND       PRES   REMARKS
ROCKFORD       NOT AVBL
$$

ILZ005-006-012>014-019>023-161800-
NORTHEAST ILLINOIS

CITY           SKY/WX    TMP DP  RH WIND       PRES   REMARKS
CHICAGO-OHARE  MOSUNNY   60  40  47 CALM      30.19F
CHICAGO-MIDWAY MOSUNNY   62  43  49 NW3       30.19F
AURORA         SUNNY     62  40  44 S3        30.20F
WAUKEGAN       SUNNY     61  40  45 VRB3      30.18F
DUPAGE AIRPORT SUNNY     64  42  44 W8        30.19F
WHEELING       SUNNY     63  39  41 VRB3      30.20F
NORTHERLY ISL    N/A     60  50  69 NE7         N/A
$$

LMZ740>746-161800-
SOUTHERN LAKE MICHIGAN

STATION/POSITION SKY/WX   TEMP    WIND        PRES    VSBY  WAVE
                          AIR SEA DIR/SP/G                  HT/PER
                          (F)     (DEG/KT/KT) (MB)    (MI)  (FT/S)
SOUTHERN BUOY              58 64  310/  8/ 10 1022.7          2/ 5
WAUKEGAN HARBOR            57      80/  6/  8   N/A
HARRISON CRIB              56     340/  5/  6   N/A
BURNHAM HARBOR             59      30/  6       N/A
CALUMET HARBOR             59      60/  5/  5 1021.6F
MICHIGAN CITY              58     230/  8/  9   N/A
MICHIGAN CITY 6N           59 64  280/  4/  6   N/A           1/ 4
ST. JOSEPH                 59 67  200/  8/ 12   N/A           1/ 4
$$

ILZ025>027-034>036-040-047-049-050-058-095>099-161800-
WEST-CENTRAL ILLINOIS

CITY           SKY/WX    TMP DP  RH WIND       PRES   REMARKS
$$

ILZ028>032-037-038-041>044-048-051>054-059>061-161800-
CENTRAL ILLINOIS

CITY           SKY/WX    TMP DP  RH WIND       PRES   REMARKS
PEORIA         NOT AVBL
SPRINGFIELD    PTSUNNY   63  51  65 E5        30.22F
TAYLORVILLE    NOT AVBL
$$

ILZ033-039-045-046-055>057-062-063-161800-
EAST-CENTRAL ILLINOIS

CITY           SKY/WX    TMP DP  RH WIND       PRES   REMARKS
MATTOON        CLOUDY    58  51  78 E5        30.21S
$$

ILZ079-100>102-161800-
SOUTHWEST ILLINOIS

CITY           SKY/WX    TMP DP  RH WIND       PRES   REMARKS
$$

ILZ064>066-069>071-074>076-080>082-084>086-088>090-092>094-161800-
SOUTH-CENTRAL ILLINOIS

CITY           SKY/WX    TMP DP  RH WIND       PRES   REMARKS
CARBONDALE     CLOUDY    62  52  69 N5        30.20F
$$

ILZ067-068-072-073-078-083-087-091-161800-
SOUTHEAST ILLINOIS

CITY           SKY/WX    TMP DP  RH WIND       PRES   REMARKS
$$

ABBREVIATIONS USED IN REMARKS
   TC - TEMPERATURE IN CELSIUS
  WCI - WIND CHILL INDEX
   HX - HEAT INDEX
  VSB - VISIBILITY
$$




USA.gov is the U.S. government's official web portal to all federal, state and local government web resources and services.